Location: Eppenbrunn
(49.1158°N, 7.5601°E)
Time: 22:14:42
(UTC+00:00)

IGS 5A - Visible Passes

Search period start: 16 June 2021 00:00
Search period end: 26 June 2021 00:00
Orbit: 583 x 588 km, 97.6° (Epoch: 06 May)

Date Brightness Start Highest point End Pass type
(mag) Time Alt. Az. Time Alt. Az. Time Alt. Az.
16 Jun 6.0 21:15:55 10° SW 21:18:36 17° W 21:21:18 10° NW visible
17 Jun 6.1 21:23:04 10° WSW 21:25:21 14° W 21:27:38 10° NW visible
18 Jun 6.2 21:30:23 10° WSW 21:32:07 12° W 21:33:49 10° WNW visible
19 Jun 6.4 21:38:10 10° W 21:38:52 10° W 21:39:34 10° WNW visible
22 Jun 4.1 20:18:44 10° S 20:22:49 57° W 20:26:57 10° NNW visible
23 Jun 4.3 20:25:30 10° S 20:29:31 48° W 20:33:35 10° NNW visible
24 Jun 4.6 20:32:16 10° S 20:36:13 41° W 20:40:11 10° NNW visible
25 Jun 4.9 20:39:06 10° SSW 20:42:56 35° W 20:46:46 10° NNW visible
